[[{"header":{"parameterUnit":"m.s-1","parameterCategory":2,"la1":30.2992,"la2":30.254,"lo1":-89.0895,"lo2":-89.0443,"dy":0.0025,"dx":0.0025,"nx":19,"ny":19,"refTime":"2026-04-11T03:00:00:Z","depth":"0","parameterNumber":2,"parameterNumberName":"U-component_of_CURRENTS"},"data":[0,0,0,0.471,0.4713,0.4813,0.4813,0.4789,0.4788,0,0,0,0,0,0,0,0,0,0,0,0.4665,0.4666,0.471,0.4713,0.4813,0.4813,0.4789,0.4788,0,0,0,0,0,0,0,0,0,0,0,0.4664,0.4665,0.4667,0.4714,0.4813,0.4813,0.4789,0.4745,0,0,0,0,0,0,0,0,0,0,0.4664,0.4643,0.4665,0.4667,0.4715,0.4813,0.4813,0.4744,0.4748,0.4707,0,0.474,0,0.4777,0.4785,0.4785,0,0,0,0.4688,0.4641,0.4685,0.4667,0.4716,0.4813,0.4761,0.4747,0.4751,0.4711,0.4741,0.4741,0.4776,0.4785,0.4785,0.4817,0.4818,0,0,0.4683,0.4659,0.4683,0.4688,0.4762,0.4758,0.4765,0.4751,0.4749,0.4741,0.4742,0.4776,0.4785,0.4784,0.4817,0.4817,0,0,0,0.4684,0.4654,0.4701,0.4687,0.4726,0.4762,0.4769,0.4749,0.4771,0.4742,0.4776,0.4785,0.4784,0.4816,0.4817,0.4887,0,0,0,0.4679,0.4658,0.4699,0.4682,0.4728,0.4758,0.4767,0.4771,0.4772,0.4776,0.4785,0.4784,0.4815,0.4816,0.4884,0.4917,0,0,0,0.4657,0.4655,0.4677,0.4681,0.474,0.476,0.478,0.4772,0.4793,0.4785,0.4783,0.4815,0.4816,0.4881,0.4911,0.4949,0,0,0,0.4612,0.4656,0.4676,0.4737,0.4739,0.482,0.4781,0.4822,0.4824,0.4784,0.4815,0.4817,0.488,0.4908,0.4946,0.4933,0.4947,0,0,0.4644,0.4659,0.4699,0.4721,0.4802,0.4803,0.4867,0.4851,0.483,0.4802,0.4804,0.4885,0.4911,0.4949,0.5026,0.5037,0,0,0,0.4695,0.4707,0.4741,0.4793,0.4859,0.49,0.4901,0.4905,0.4913,0.4845,0.4898,0.4912,0.4934,0.4919,0.4929,0.4814,0.4824,0.4824,0.4824,0.4646,0.4708,0.4756,0.4829,0.4885,0.4955,0.4993,0.4993,0.4958,0.4987,0.4979,0.507,0.5057,0.5064,0.4946,0.4989,0.4989,0.499,0.499,0.4641,0.4649,0.4737,0.4798,0.4881,0.4932,0.5039,0.5056,0.5113,0.5067,0.5084,0.5007,0.5078,0.4948,0.4995,0.4994,0.4993,0.4993,0.4992,0.4551,0.4564,0.462,0.4709,0.4794,0.4908,0.5014,0.5109,0.516,0.5208,0.5168,0.5166,0.5042,0.5207,0.5207,0.5207,0.5208,0.5208,0.5208,0.4416,0.4482,0.4507,0.4614,0.4662,0.4791,0.5004,0.5103,0.5224,0.525,0.525,0.5064,0.5136,0.5116,0.5213,0.5212,0.5212,0.5211,0.5211,0.4284,0.4337,0.4361,0.4403,0.4528,0.4573,0.4828,0.5043,0.5185,0.5224,0.5155,0.5269,0.5242,0.5233,0.5216,0.5334,0.5334,0.5334,0.5334,0.4185,0.4218,0.4222,0.4248,0.4337,0.446,0.4507,0.4732,0.4988,0.5057,0.5141,0.507,0.507,0.5028,0.5023,0.4999,0.5059,0.5058,0.5058,0.4106,0.413,0.4077,0.4132,0.4219,0.4303,0.4246,0.4294,0.4723,0.5034,0.4986,0.4998,0.4878,0.4887,0.4805,0.4809,0.4763,0,0]},{"header":{"parameterUnit":"m.s-1","parameterCategory":2,"la1":30.2992,"la2":30.254,"lo1":-89.0895,"lo2":-89.0443,"dy":0.0025,"dx":0.0025,"nx":19,"ny":19,"refTime":"2026-04-11T03:00:00:Z","depth":"0","parameterNumber":3,"parameterNumberName":"V-component_of_CURRENTS"},"data":[0,0,0,-0.0353,-0.0353,-0.0353,-0.0353,-0.0334,-0.0334,0,0,0,0,0,0,0,0,0,0,0,-0.035,-0.035,-0.0353,-0.0353,-0.0353,-0.0353,-0.0334,-0.0334,0,0,0,0,0,0,0,0,0,0,0,-0.035,-0.035,-0.035,-0.0353,-0.0353,-0.0353,-0.0334,-0.0338,0,0,0,0,0,0,0,0,0,0,-0.0341,-0.0344,-0.035,-0.035,-0.0353,-0.0353,-0.0353,-0.0339,-0.0338,-0.0329,0,-0.0328,0,-0.0332,-0.0332,-0.0332,0,0,0,-0.0351,-0.0344,-0.0342,-0.035,-0.0353,-0.0353,-0.0352,-0.0339,-0.0338,-0.0328,-0.0328,-0.0327,-0.0331,-0.0332,-0.0332,-0.0239,-0.0238,0,0,-0.0351,-0.0352,-0.0343,-0.0342,-0.0351,-0.0352,-0.0352,-0.0338,-0.0338,-0.0328,-0.0327,-0.0331,-0.0332,-0.0332,-0.024,-0.0239,0,0,0,-0.0352,-0.0352,-0.035,-0.0342,-0.0345,-0.0352,-0.0352,-0.0338,-0.0337,-0.0327,-0.0331,-0.0332,-0.0332,-0.0241,-0.0239,-0.0124,0,0,0,-0.0352,-0.0352,-0.035,-0.0351,-0.0345,-0.0345,-0.0353,-0.0338,-0.0337,-0.0331,-0.0332,-0.0331,-0.0242,-0.024,-0.0129,-0.0029,0,0,0,-0.035,-0.0352,-0.0351,-0.0351,-0.0351,-0.0345,-0.0344,-0.0338,-0.0339,-0.0332,-0.0331,-0.0242,-0.024,-0.0134,-0.0038,0.0084,0,0,0,-0.0352,-0.0313,-0.0351,-0.0304,-0.0351,-0.0289,-0.0344,-0.0316,-0.0304,-0.0332,-0.0242,-0.024,-0.0135,-0.0044,0.0077,0.0313,0.0363,0,0,-0.0293,-0.0306,-0.0273,-0.0307,-0.0233,-0.0289,-0.0191,-0.0218,-0.027,-0.0247,-0.0245,-0.0127,-0.0039,0.0082,0.0428,0.0475,0,0,0,-0.0247,-0.0223,-0.0206,-0.0181,-0.0163,-0.0114,-0.0147,-0.0146,-0.014,-0.0255,-0.0119,-0.0065,0.0007,0.0134,0.0172,0.0004,-0.023,-0.0231,-0.0231,-0.0163,-0.0151,-0.0077,-0.0054,-0.0018,0.0008,0.0058,0.0052,-0.0036,-0.0019,0.0032,0.0216,0.0351,0.0383,0.0205,0.001,0.001,0.0011,0.0011,-0.0042,0.0012,0.0029,0.0103,0.0137,0.0203,0.0253,0.0216,0.0299,0.0168,0.0231,0.0255,0.0432,0.0227,0.0019,0.0017,0.0016,0.0016,0.0015,0.0025,0.006,0.0092,0.0204,0.0299,0.0334,0.0526,0.0495,0.0431,0.05,0.0626,0.0626,0.0447,0.051,0.0511,0.0512,0.0513,0.0514,0.0514,0.0085,0.0126,0.0229,0.0322,0.0418,0.056,0.069,0.0795,0.0871,0.0825,0.0826,0.0518,0.0369,0.035,0.0529,0.0527,0.0525,0.0523,0.0522,0.0196,0.0198,0.0376,0.0482,0.0729,0.0999,0.1078,0.1347,0.1386,0.1466,0.1022,0.1006,0.1008,0.0978,0.0975,0.1306,0.1306,0.1306,0.1306,0.0267,0.0279,0.0549,0.077,0.1038,0.1228,0.1725,0.1907,0.1679,0.1502,0.1241,0.1123,0.1099,0.1093,0.1061,0.1052,0.1395,0.1394,0.1393,0.0367,0.0439,0.0667,0.0875,0.1185,0.1534,0.2044,0.24,0.1923,0.1363,0.0959,0.0956,0.0731,0.0707,0.0646,0.0615,0.0581,0,0]}],[{"header":{"parameterUnit":"m.s-1","parameterCategory":2,"la1":30.2992,"la2":30.254,"lo1":-89.0895,"lo2":-89.0443,"dy":0.0025,"dx":0.0025,"nx":19,"ny":19,"refTime":"2026-04-11T03:00:00:Z","depth":"2","parameterNumber":2,"parameterNumberName":"U-component_of_CURRENTS"},"data":[0,0,0,0.316,0.3161,0.3224,0.3224,0.333,0.3331,0,0,0,0,0,0,0,0,0,0,0,0.3139,0.3139,0.316,0.3161,0.3224,0.3224,0.333,0.3331,0,0,0,0,0,0,0,0,0,0,0,0.3139,0.3139,0.3139,0.3161,0.3223,0.3224,0.3329,0.3279,0,0,0,0,0,0,0,0,0,0,0.3217,0.3174,0.3139,0.3139,0.3161,0.3223,0.3224,0.3277,0.3283,0.3304,0,0.3304,0,0.3313,0.3337,0.3337,0,0,0,0.3176,0.3169,0.3197,0.3139,0.3162,0.3223,0.32,0.328,0.3286,0.3311,0.3305,0.3309,0.3315,0.3337,0.3338,0.3461,0.3461,0,0,0.3173,0.3144,0.3193,0.3201,0.3166,0.3197,0.3201,0.3284,0.3279,0.3306,0.3312,0.3317,0.3338,0.3339,0.346,0.3461,0,0,0,0.3152,0.3141,0.3167,0.3197,0.3203,0.3199,0.3203,0.3275,0.3287,0.3313,0.3318,0.3339,0.334,0.3459,0.346,0.3513,0,0,0,0.3151,0.3129,0.3165,0.3148,0.32,0.3232,0.3193,0.3281,0.3291,0.3318,0.3339,0.3341,0.3459,0.346,0.351,0.353,0,0,0,0.3138,0.3127,0.3133,0.3147,0.3168,0.3231,0.3247,0.3284,0.3294,0.3337,0.3341,0.3458,0.346,0.3507,0.3526,0.3604,0,0,0,0.311,0.3141,0.3132,0.3145,0.3168,0.3247,0.3247,0.3324,0.337,0.3339,0.3459,0.346,0.3506,0.3523,0.3601,0.3539,0.355,0,0,0.3146,0.3144,0.3149,0.3143,0.3186,0.324,0.3307,0.3371,0.3395,0.3434,0.3437,0.3511,0.3525,0.3604,0.3627,0.3635,0,0,0,0.3157,0.3147,0.3164,0.3164,0.3229,0.331,0.3361,0.3403,0.3483,0.3423,0.3527,0.3535,0.3583,0.3538,0.3546,0.3467,0.3467,0.3467,0.3467,0.3111,0.313,0.3144,0.3179,0.3249,0.3363,0.345,0.3517,0.3515,0.357,0.359,0.3701,0.3653,0.3658,0.3605,0.3606,0.3606,0.3606,0.3606,0.3061,0.3047,0.3104,0.3136,0.3251,0.3335,0.3515,0.3565,0.3683,0.3649,0.3694,0.361,0.3669,0.3611,0.361,0.3609,0.3609,0.3608,0.3608,0.2969,0.2987,0.3011,0.3072,0.3211,0.3353,0.3514,0.3654,0.3733,0.3804,0.3777,0.3775,0.3738,0.3838,0.3839,0.3839,0.3839,0.384,0.384,0.2866,0.2916,0.2915,0.303,0.3101,0.3267,0.3535,0.3632,0.3784,0.3836,0.3836,0.3779,0.3772,0.3752,0.3847,0.3846,0.3845,0.3844,0.3844,0.2758,0.2822,0.2808,0.2853,0.2999,0.3071,0.3359,0.3583,0.3746,0.3801,0.3865,0.3862,0.3845,0.3837,0.382,0.3927,0.3927,0.3927,0.3927,0.2701,0.2718,0.2717,0.2763,0.2838,0.2988,0.3014,0.3222,0.3533,0.3636,0.3647,0.3544,0.3549,0.3509,0.3509,0.3481,0.35,0.3499,0.3498,0.2631,0.2646,0.2636,0.2699,0.2771,0.2809,0.2743,0.2781,0.3112,0.3472,0.3481,0.3916,0.3794,0.3789,0.3748,0.374,0.3704,0,0]},{"header":{"parameterUnit":"m.s-1","parameterCategory":2,"la1":30.2992,"la2":30.254,"lo1":-89.0895,"lo2":-89.0443,"dy":0.0025,"dx":0.0025,"nx":19,"ny":19,"refTime":"2026-04-11T03:00:00:Z","depth":"2","parameterNumber":3,"parameterNumberName":"V-component_of_CURRENTS"},"data":[0,0,0,0.0202,0.0202,0.0181,0.0181,0.0116,0.0116,0,0,0,0,0,0,0,0,0,0,0,0.0209,0.021,0.0202,0.0202,0.0182,0.0181,0.0116,0.0116,0,0,0,0,0,0,0,0,0,0,0,0.0209,0.021,0.021,0.0202,0.0182,0.0181,0.0116,0.0138,0,0,0,0,0,0,0,0,0,0,0.0162,0.0173,0.0209,0.021,0.0202,0.0182,0.0181,0.0139,0.0137,0.0119,0,0.0127,0,0.0125,0.0112,0.0111,0,0,0,0.0188,0.0175,0.0179,0.021,0.0202,0.0182,0.0187,0.0138,0.0135,0.0115,0.0126,0.0124,0.0124,0.0111,0.0111,0.0118,0.0118,0,0,0.0189,0.0192,0.0181,0.0177,0.0211,0.0188,0.0186,0.0137,0.0133,0.0126,0.0122,0.0123,0.0111,0.011,0.0117,0.0118,0,0,0,0.0202,0.0193,0.0198,0.018,0.0182,0.0187,0.0186,0.0135,0.014,0.0122,0.0122,0.011,0.011,0.0117,0.0118,0.0234,0,0,0,0.0202,0.0202,0.0199,0.0198,0.0184,0.0162,0.0185,0.0143,0.0137,0.0122,0.011,0.0109,0.0116,0.0117,0.0229,0.0311,0,0,0,0.0208,0.0202,0.0206,0.0199,0.0197,0.0163,0.0164,0.0142,0.0138,0.0111,0.0109,0.0116,0.0117,0.0226,0.0303,0.0349,0,0,0,0.0201,0.0243,0.0206,0.0261,0.0198,0.0236,0.0164,0.0166,0.0151,0.011,0.0116,0.0117,0.0224,0.0298,0.0344,0.0418,0.0446,0,0,0.0259,0.0249,0.0289,0.0257,0.0327,0.0236,0.029,0.0227,0.0161,0.0126,0.0126,0.0231,0.0302,0.0348,0.0489,0.0516,0,0,0,0.0312,0.0341,0.0356,0.0386,0.0385,0.0385,0.0313,0.0279,0.0239,0.016,0.0223,0.0265,0.029,0.0324,0.0345,0.0123,0.0123,0.0123,0.0123,0.0395,0.0415,0.0488,0.0506,0.0513,0.048,0.0471,0.0407,0.0322,0.0317,0.0353,0.0463,0.0501,0.0517,0.0327,0.0328,0.0328,0.0329,0.0329,0.0521,0.0576,0.0587,0.066,0.065,0.0673,0.0621,0.0564,0.0542,0.0453,0.0469,0.0438,0.0547,0.0338,0.0336,0.0335,0.0334,0.0333,0.0333,0.0584,0.0615,0.0656,0.0755,0.0817,0.0803,0.0882,0.0802,0.0675,0.0692,0.0687,0.0685,0.0543,0.0684,0.0685,0.0686,0.0686,0.0687,0.0687,0.0631,0.0676,0.0766,0.0858,0.0934,0.1033,0.1036,0.1031,0.095,0.0844,0.0843,0.0583,0.0571,0.0563,0.0696,0.0694,0.0693,0.0692,0.0692,0.0718,0.0723,0.0872,0.0962,0.1166,0.1333,0.1317,0.1319,0.1248,0.1222,0.0911,0.0903,0.0873,0.0855,0.0852,0.1053,0.1053,0.1053,0.1053,0.0765,0.0782,0.0983,0.1153,0.1358,0.1481,0.1646,0.1573,0.1354,0.1179,0.1173,0.1108,0.1091,0.1067,0.1044,0.1042,0.1292,0.1292,0.1292,0.0834,0.0887,0.104,0.1208,0.145,0.1652,0.1809,0.1737,0.1403,0.1298,0.1175,0.1077,0.096,0.0942,0.088,0.0853,0.0839,0,0]}],[{"header":{"parameterUnit":"m.s-1","parameterCategory":2,"la1":30.2992,"la2":30.254,"lo1":-89.0895,"lo2":-89.0443,"dy":0.0025,"dx":0.0025,"nx":19,"ny":19,"refTime":"2026-04-11T03:00:00:Z","depth":"4","parameterNumber":2,"parameterNumberName":"U-component_of_CURRENTS"},"data":[0,0,0,0.1821,0.1826,0.2083,0.2085,0.2331,0.2333,0,0,0,0,0,0,0,0,0,0,0,0.1726,0.1728,0.182,0.1827,0.2083,0.2085,0.2331,0.2333,0,0,0,0,0,0,0,0,0,0,0,0.1726,0.1727,0.1729,0.1827,0.2083,0.2085,0.2331,0.2159,0,0,0,0,0,0,0,0,0,0,0.192,0.1853,0.1727,0.1729,0.1829,0.2083,0.2085,0.2152,0.217,0.2189,0,0.2228,0,0.2285,0.2347,0.2348,0,0,0,0.1835,0.1839,0.1896,0.173,0.1831,0.2082,0.197,0.2163,0.2183,0.2212,0.2232,0.2242,0.2289,0.2349,0.235,0.255,0.2551,0,0,0.1821,0.1787,0.1882,0.1909,0.1896,0.1962,0.1978,0.2176,0.22,0.2233,0.2249,0.2293,0.235,0.2352,0.255,0.255,0,0,0,0.1774,0.1776,0.1832,0.1897,0.1951,0.1969,0.1987,0.2192,0.2208,0.2252,0.2296,0.2351,0.2354,0.2549,0.255,0.2584,0,0,0,0.1766,0.1749,0.1825,0.1809,0.1947,0.209,0.1999,0.2194,0.2219,0.2295,0.2351,0.2356,0.2548,0.2549,0.2581,0.261,0,0,0,0.1715,0.1745,0.177,0.1806,0.1914,0.2088,0.2117,0.2201,0.2245,0.2348,0.2356,0.2548,0.2549,0.2579,0.2606,0.2688,0,0,0,0.1675,0.1712,0.177,0.1833,0.1911,0.2056,0.2116,0.2249,0.2338,0.2352,0.2548,0.255,0.2578,0.2604,0.2684,0.2359,0,0,0,0.1689,0.1713,0.1748,0.1806,0.1922,0.2021,0.2166,0.2308,0.2365,0.2477,0.2483,0.2582,0.2606,0.2687,0.2452,0,0,0,0,0.1731,0.1756,0.1801,0.1892,0.2005,0.2145,0.2281,0.2352,0.25,0.2425,0.2604,0.2619,0.2668,0.2469,0.2557,0.2557,0.2557,0.2557,0.2557,0.1694,0.1763,0.1834,0.1942,0.205,0.2244,0.2363,0.2488,0.2527,0.2601,0.2661,0.2768,0.2557,0.2671,0.2671,0.2672,0.2672,0.2672,0.2672,0.1698,0.1729,0.1852,0.1949,0.2107,0.2252,0.2474,0.2552,0.2736,0.272,0.2766,0.2535,0.2676,0.2675,0.2675,0.2674,0.2674,0.2674,0.2673,0.1651,0.1672,0.1761,0.1912,0.2085,0.2286,0.247,0.2651,0.278,0.2851,0.2678,0.2819,0.2801,0.2893,0.2894,0.2895,0.2895,0.2895,0.2896,0.1553,0.1637,0.1708,0.1877,0.1984,0.2193,0.2499,0.262,0.2796,0.2707,0.289,0.2844,0.2837,0.2816,0.2903,0.2902,0.2901,0.29,0.29,0.1471,0.1524,0.1612,0.1707,0.1916,0.2039,0.2355,0.2518,0.2625,0.2628,0.2631,0.2642,0.2613,0.2613,0.2582,0.2604,0.26,0.2597,0,0.1394,0.1431,0.1524,0.1617,0.1728,0.1937,0.2024,0.2207,0.2379,0.2297,0.2621,0.2618,0.2625,0.2584,0.2578,0.2536,0,0,0,0.1336,0.1383,0.1411,0.1518,0.1617,0.1792,0.2035,0.2033,0.2346,0.2359,0.2501,0.2526,0.2731,0.2926,0.291,0.2901,0.2868,0,0]},{"header":{"parameterUnit":"m.s-1","parameterCategory":2,"la1":30.2992,"la2":30.254,"lo1":-89.0895,"lo2":-89.0443,"dy":0.0025,"dx":0.0025,"nx":19,"ny":19,"refTime":"2026-04-11T03:00:00:Z","depth":"4","parameterNumber":3,"parameterNumberName":"V-component_of_CURRENTS"},"data":[0,0,0,0.0284,0.0284,0.0264,0.0264,0.0205,0.0204,0,0,0,0,0,0,0,0,0,0,0,0.0294,0.0294,0.0284,0.0284,0.0264,0.0264,0.0205,0.0204,0,0,0,0,0,0,0,0,0,0,0,0.0294,0.0294,0.0294,0.0284,0.0264,0.0264,0.0205,0.0227,0,0,0,0,0,0,0,0,0,0,0.025,0.026,0.0294,0.0294,0.0284,0.0264,0.0264,0.0229,0.0226,0.0206,0,0.0209,0,0.0205,0.02,0.02,0,0,0,0.0279,0.0263,0.0263,0.0294,0.0284,0.0264,0.0272,0.0227,0.0224,0.0202,0.0208,0.0206,0.0204,0.02,0.0199,0.0179,0.0179,0,0,0.028,0.0281,0.0265,0.0261,0.0286,0.0272,0.0271,0.0226,0.0221,0.0208,0.0205,0.0203,0.0199,0.0199,0.0178,0.0179,0,0,0,0.0286,0.0282,0.0284,0.0264,0.0263,0.0272,0.0271,0.0223,0.0226,0.0204,0.0202,0.0199,0.0198,0.0178,0.0178,0.0271,0,0,0,0.0287,0.0286,0.0285,0.0284,0.0264,0.0246,0.0269,0.0229,0.0224,0.0203,0.0199,0.0198,0.0178,0.0178,0.0268,0.0326,0,0,0,0.0293,0.0287,0.0288,0.0284,0.0279,0.0247,0.0246,0.0228,0.0223,0.02,0.0197,0.0178,0.0178,0.0265,0.0321,0.0332,0,0,0,0.029,0.0315,0.0288,0.0319,0.0279,0.0299,0.0247,0.0248,0.0235,0.0199,0.0178,0.0178,0.0264,0.0317,0.0329,0.0357,0,0,0,0.0327,0.0319,0.0342,0.0318,0.0364,0.0301,0.0331,0.0287,0.0234,0.0188,0.0188,0.0269,0.032,0.0332,0.0392,0,0,0,0,0.0358,0.0376,0.0384,0.0402,0.0397,0.0397,0.0344,0.0315,0.0279,0.0229,0.0255,0.0284,0.0289,0.0295,0.0181,0.0181,0.0181,0.0181,0.0181,0.0411,0.0423,0.047,0.0482,0.0485,0.0458,0.0448,0.0392,0.0332,0.0326,0.0349,0.041,0.042,0.0325,0.0326,0.0326,0.0327,0.0327,0.0327,0.0483,0.0516,0.0532,0.0583,0.0581,0.0593,0.0545,0.0505,0.047,0.0415,0.0413,0.038,0.0336,0.0334,0.0333,0.0332,0.0331,0.033,0.033,0.0515,0.0537,0.0572,0.0647,0.0701,0.0692,0.0736,0.0675,0.057,0.0574,0.0541,0.0465,0.0468,0.0561,0.0562,0.0562,0.0562,0.0562,0.0563,0.053,0.057,0.0639,0.0719,0.0786,0.0857,0.0854,0.0827,0.0725,0.066,0.06,0.0488,0.0481,0.048,0.0568,0.0567,0.0566,0.0566,0.0565,0.0564,0.0587,0.0694,0.0772,0.0931,0.0988,0.1,0.0925,0.0884,0.0804,0.068,0.0673,0.0638,0.0626,0.0629,0.0764,0.0765,0.0766,0,0.0585,0.0602,0.0751,0.0882,0.1017,0.1068,0.1069,0.1023,0.0874,0.0859,0.0848,0.0711,0.0704,0.0665,0.0656,0.0661,0,0,0,0.0612,0.0658,0.0765,0.0899,0.1058,0.1071,0.1071,0.103,0.0906,0.0871,0.0784,0.0779,0.0701,0.0583,0.0511,0.0501,0.0496,0,0]}]]